[[{"header":{"parameterUnit":"m.s-1","parameterCategory":1,"la1":30.2991,"la2":30.254,"lo1":-89.0895,"lo2":-89.0444,"dy":0.0017,"dx":0.0017,"nx":28,"ny":28,"refTime":"2025-03-16T09:00:00:Z","depth":0,"parameterNumber":2,"parameterNumberName":"U-component_of_WINDS"},"data":[0,0,0,0,0,0,0,0,0,0,0,0,0,0,0,0,0,0,0,0,0,0,0,0,0,0,0,0,0,0,0,0,0,0,0,0,0,0,0,0,0,0,0,0,0,0,0,0,0,0,0,0,0,0,0,0,0,0,4.887,4.8872,0,4.9009,4.9011,4.9013,4.8966,4.8963,4.896,4.8957,4.9101,4.9107,4.9114,0,0,0,0,0,0,0,0,0,0,0,0,0,4.8568,4.8573,4.887,4.8872,4.8874,4.9009,4.9011,4.9013,4.8966,4.8963,4.8959,4.8956,4.9099,4.9106,4.9114,0,0,0,0,0,0,0,0,0,0,0,0,0,4.8702,4.8575,4.887,4.8867,4.8868,4.9009,4.9011,4.9013,4.8967,4.8963,4.8958,4.8954,4.9096,4.9106,4.9115,4.9268,0,0,4.9146,4.915,0,0,0,0,0,0,0,0,4.8695,4.8713,4.8866,4.8867,4.8869,4.8966,4.8957,4.9099,4.8968,4.893,4.8957,4.8952,4.906,4.9072,4.9108,4.9275,4.9281,4.9147,4.9153,4.9157,4.916,0,0,0,0,0,0,0,4.8685,4.8707,4.8925,4.8868,4.887,4.886,4.8874,4.8984,4.9018,4.8933,4.893,4.8947,4.906,4.9099,4.9111,4.9283,4.9147,4.9155,4.9162,4.9165,4.9585,4.959,0,0,0,0,0,0,4.8675,4.87,4.8921,4.8929,4.8769,4.8869,4.8884,4.8939,4.9017,4.9025,4.895,4.8944,4.9084,4.91,4.9116,4.9302,4.9157,4.9166,4.9172,4.958,4.9586,4.9592,0,0,0,0,0,0,4.8668,4.8695,4.8915,4.8814,4.8841,4.8879,4.8941,4.8944,4.8983,4.903,4.9037,4.8984,4.9081,4.9102,4.9231,4.9306,4.9171,4.918,4.9574,4.9582,4.9589,4.9673,0,0,0,0,0,0,4.866,4.8693,4.875,4.8815,4.8847,4.9027,4.8945,4.895,4.9001,4.8994,4.9064,4.9071,4.9079,4.9217,4.9241,4.9317,4.9188,4.9567,4.9577,4.9586,4.9664,4.9683,4.9699,0,0,0,0,0,4.8649,4.8768,4.8753,4.878,4.8919,4.9032,4.905,4.9056,4.9007,4.9066,4.9096,4.9069,4.9294,4.923,4.9257,4.9338,4.9562,4.9574,4.9586,4.9656,4.9679,4.9699,0,0,0,0,0,0,4.8711,4.8777,4.8761,4.8904,4.8963,4.9023,4.9098,4.908,4.9154,4.9144,4.915,4.9166,4.9299,4.9331,4.9259,4.9491,4.9421,4.9439,4.9465,4.9488,4.9505,4.9495,4.9196,0,0,0,0,0,4.8741,4.8826,4.8879,4.9001,4.9031,4.906,4.9109,4.9109,4.917,4.9195,4.9234,4.9295,4.938,4.9435,4.9516,4.9669,4.9684,4.9738,4.9755,4.9769,4.9785,4.987,4.9895,4.963,4.963,4.9629,0,0,4.8805,4.8851,4.8904,4.9015,4.906,4.9149,4.9081,4.9177,4.9244,4.9209,4.9334,4.9366,4.9434,4.9576,4.9641,4.9607,4.9862,4.9784,4.9795,4.9803,4.9885,4.991,4.9932,4.9638,4.9636,4.9635,0,0,4.8966,4.9009,4.9116,4.9163,4.9233,4.9251,4.9277,4.9342,4.9361,4.9487,4.9463,4.9543,4.9688,4.9739,4.9783,4.9967,4.9945,4.9993,5.0085,5.0169,5.019,5.0208,5.0275,5.0299,5.0008,5.0008,5.0008,0,4.9036,4.9169,4.9173,4.9273,4.9323,4.9296,4.9406,4.9451,4.9544,4.958,4.9541,4.9724,4.9768,4.9923,4.9968,5.0004,5.0036,4.9985,5.0186,5.0205,5.0222,5.0287,5.0312,5.0014,5.0013,5.0013,5.0012,0,4.9253,4.9345,4.9423,4.9514,4.9573,4.9677,4.9699,4.9758,4.9754,4.9778,4.9907,4.9959,5.0051,5.0087,5.0084,5.0243,5.022,5.0184,5.0113,5.0253,5.0314,5.0338,5.0022,5.002,5.0018,5.0017,0,0,4.9455,4.9549,4.9577,4.9619,4.9695,4.9768,4.9872,4.9961,5.0013,5.0078,5.0167,5.0292,5.0259,5.031,5.0312,5.0386,5.053,5.034,5.0342,5.0375,5.0711,5.0739,5.0767,5.0516,5.0521,5.0525,5.0706,0,4.9624,4.9806,4.9814,4.998,5.0067,5.0044,5.0135,5.0192,5.0218,5.0296,5.0324,5.0413,5.0362,5.0393,5.0465,5.0498,5.0598,5.0484,5.06,5.0604,5.0584,5.0798,5.0827,5.0996,5.0729,5.0733,5.0736,0,4.9844,4.9917,5.0092,5.0158,5.0195,5.0276,5.0361,5.0435,5.0501,5.0514,5.0573,5.0565,5.0673,5.06,5.075,5.0673,5.0721,5.0744,5.0751,5.0762,5.0679,5.0817,5.1049,5.1075,5.0773,5.077,5.0768,0,4.9977,5.0119,5.0242,5.0279,5.0358,5.0416,5.0452,5.0513,5.0568,5.0642,5.0677,5.0763,5.081,5.0878,5.0894,5.0839,5.1046,5.0972,5.1061,5.1061,5.1106,5.1103,5.135,5.1135,5.1135,5.1135,5.1134,0,5.0165,5.0273,5.0303,5.0379,5.0501,5.051,5.0631,5.0663,5.0718,5.0801,5.0786,5.0865,5.0882,5.0965,5.0978,5.1102,5.1123,5.1138,5.1141,5.114,5.1139,5.1172,5.1161,5.1141,5.114,5.1138,5.1137,0,5.0333,5.0357,5.0491,5.0556,5.0575,5.0662,5.0718,5.0792,5.0816,5.0922,5.0947,5.0985,5.1082,5.1105,5.122,5.123,5.1377,5.1368,5.1355,5.1354,5.1442,5.1434,5.1721,5.176,5.1518,5.1521,5.1522,0,5.0451,5.0534,5.0609,5.0663,5.0702,5.079,5.0846,5.0859,5.0918,5.1001,5.1065,5.116,5.1237,5.1393,5.1432,5.1521,5.1514,5.1609,5.1527,5.1525,5.1517,5.1513,5.1522,5.1624,5.1627,5.1629,5.163,0,5.066,5.0669,5.0749,5.0835,5.0902,5.097,5.1035,5.1081,5.1104,5.1171,5.127,5.1329,5.1448,5.1543,5.1633,5.1671,5.1656,5.1656,5.1681,5.1682,5.1671,5.168,5.1398,5.1649,5.1647,5.1646,5.1645,5.1644,5.0808,5.0882,5.0946,5.1037,5.1087,5.1149,5.1223,5.1257,5.1339,5.1436,5.1439,5.1548,5.1614,5.1733,5.1777,5.1863,5.1834,5.187,5.188,5.1889,5.1897,5.1657,5.1879,5.1878,5.1878,5.1877,5.1877,0,5.1017,5.1058,5.1141,5.1233,5.1306,5.1284,5.1356,5.1418,5.1513,5.1576,5.1652,5.1767,5.1861,5.1908,5.2,5.206,5.2056,5.2084,5.208,5.209,5.1917,5.1886,5.2087,5.2086,5.2086,5.2086,5.2086,5.2086,5.1134,5.1258,5.1275,5.1425,5.1465,5.157,5.1614,5.1671,5.1722,5.1851,5.1928,5.1958,5.2015,5.2112,5.2198,5.2209,5.2245,5.2277,5.2286,5.2123,5.2102,5.2081,5.2053,5.2285,5.2285,5.2452,5.2453,5.2454]},{"header":{"parameterUnit":"m.s-1","parameterCategory":1,"la1":30.2991,"la2":30.254,"lo1":-89.0895,"lo2":-89.0444,"dy":0.0017,"dx":0.0017,"nx":28,"ny":28,"refTime":"2025-03-16T09:00:00:Z","depth":0,"parameterNumber":3,"parameterNumberName":"V-component_of_WINDS"},"data":[0,0,0,0,0,0,0,0,0,0,0,0,0,0,0,0,0,0,0,0,0,0,0,0,0,0,0,0,0,0,0,0,0,0,0,0,0,0,0,0,0,0,0,0,0,0,0,0,0,0,0,0,0,0,0,0,0,0,-5.9894,-5.9896,0,-6.0114,-6.0116,-6.0119,-6.0094,-6.009,-6.0087,-6.0083,-6.0309,-6.0318,-6.0327,0,0,0,0,0,0,0,0,0,0,0,0,0,-5.9452,-5.9461,-5.9893,-5.9896,-5.9899,-6.0113,-6.0116,-6.0119,-6.0094,-6.009,-6.0086,-6.0082,-6.0306,-6.0317,-6.0328,0,0,0,0,0,0,0,0,0,0,0,0,0,-5.9655,-5.9463,-5.9893,-5.9912,-5.9916,-6.0113,-6.0116,-6.012,-6.0095,-6.009,-6.0085,-6.008,-6.0302,-6.0316,-6.033,-6.0521,0,0,-6.0372,-6.0378,0,0,0,0,0,0,0,0,-5.9644,-5.9672,-5.9907,-5.9911,-5.9916,-6.0071,-6.0043,-6.0254,-6.0097,-6.0027,-6.0083,-6.0077,-6.0234,-6.0253,-6.0306,-6.0531,-6.0541,-6.0373,-6.0382,-6.0388,-6.0392,0,0,0,0,0,0,0,-5.963,-5.9662,-5.998,-5.991,-5.9916,-5.991,-5.9933,-6.0083,-6.0157,-6.0033,-6.0032,-6.0058,-6.0235,-6.0293,-6.0311,-6.0544,-6.0373,-6.0385,-6.0394,-6.0399,-6.094,-6.0946,0,0,0,0,0,0,-5.9611,-5.965,-5.9973,-5.9987,-5.9764,-5.9923,-5.9948,-6.0026,-6.0156,-6.017,-6.0062,-6.0056,-6.0271,-6.0295,-6.0319,-6.0553,-6.0388,-6.0401,-6.0409,-6.0934,-6.0941,-6.0948,0,0,0,0,0,0,-5.9602,-5.964,-5.9965,-5.9819,-5.9859,-5.9936,-6.0024,-6.0034,-6.0091,-6.0178,-6.0191,-6.0107,-6.0268,-6.0299,-6.0471,-6.0561,-6.0407,-6.042,-6.0927,-6.0936,-6.0945,-6.1022,0,0,0,0,0,0,-5.9589,-5.9637,-5.971,-5.982,-5.9867,-6.0113,-6.0029,-6.0042,-6.0115,-6.0109,-6.0223,-6.0237,-6.0267,-6.0451,-6.0485,-6.0577,-6.043,-6.0919,-6.0931,-6.0942,-6.1012,-6.1033,-6.105,0,0,0,0,0,-5.9573,-5.9723,-5.9714,-5.9753,-5.996,-6.0118,-6.0145,-6.0176,-6.0122,-6.0197,-6.0253,-6.0234,-6.0545,-6.0469,-6.0507,-6.0604,-6.0914,-6.0928,-6.0941,-6.1003,-6.1028,-6.105,0,0,0,0,0,0,-5.962,-5.9737,-5.9729,-5.9918,-6.0009,-6.0114,-6.0209,-6.0201,-6.0309,-6.0298,-6.0332,-6.0358,-6.0532,-6.0585,-6.0498,-6.0797,-6.0722,-6.0744,-6.0756,-6.0781,-6.08,-6.0784,-6.0442,0,0,0,0,0,-5.9653,-5.9771,-5.9867,-6.0025,-6.007,-6.0132,-6.0202,-6.0218,-6.0313,-6.0351,-6.0419,-6.0512,-6.0631,-6.0709,-6.0823,-6.1019,-6.1045,-6.1105,-6.1124,-6.114,-6.1159,-6.1268,-6.1297,-6.0992,-6.0992,-6.0992,0,0,-5.9721,-5.9799,-5.9872,-6.0036,-6.0108,-6.023,-6.0164,-6.0296,-6.0388,-6.0371,-6.0538,-6.0592,-6.0698,-6.0883,-6.0968,-6.0933,-6.1248,-6.1157,-6.1168,-6.1179,-6.1285,-6.1314,-6.1339,-6.1001,-6.1,-6.0998,0,0,-5.9908,-5.9979,-6.0119,-6.0192,-6.0302,-6.0342,-6.0376,-6.0483,-6.0518,-6.0687,-6.0677,-6.0786,-6.099,-6.1066,-6.1132,-6.135,-6.1337,-6.1386,-6.1487,-6.1593,-6.1617,-6.1638,-6.1718,-6.1745,-6.1404,-6.1404,-6.1404,0,-5.9979,-6.0163,-6.0192,-6.0326,-6.0399,-6.0389,-6.0532,-6.0602,-6.0744,-6.0795,-6.0753,-6.101,-6.108,-6.1285,-6.1338,-6.1391,-6.1431,-6.1373,-6.1611,-6.1633,-6.1653,-6.1729,-6.1759,-6.141,-6.1409,-6.1408,-6.1408,0,-6.0245,-6.0373,-6.0473,-6.0611,-6.0695,-6.0832,-6.0883,-6.0965,-6.0974,-6.1018,-6.1191,-6.1275,-6.1407,-6.1456,-6.1466,-6.1663,-6.1638,-6.1603,-6.1529,-6.1687,-6.1759,-6.1788,-6.1417,-6.1415,-6.1414,-6.1412,0,0,-6.0468,-6.0621,-6.0657,-6.072,-6.0841,-6.0941,-6.1078,-6.1208,-6.1278,-6.1376,-6.1493,-6.1666,-6.1636,-6.1711,-6.1729,-6.1822,-6.1991,-6.1776,-6.1779,-6.1815,-6.2215,-6.2241,-6.2274,-6.1983,-6.1988,-6.1993,-6.2207,0,-6.0668,-6.0912,-6.0943,-6.1159,-6.1278,-6.1272,-6.1392,-6.148,-6.1525,-6.1634,-6.1684,-6.1807,-6.1756,-6.1802,-6.1894,-6.1951,-6.2072,-6.1936,-6.2093,-6.2098,-6.2068,-6.2312,-6.2339,-6.2537,-6.2235,-6.224,-6.2243,0,-6.0934,-6.104,-6.1269,-6.1375,-6.1426,-6.1534,-6.1656,-6.1759,-6.1859,-6.1885,-6.197,-6.1976,-6.2119,-6.2038,-6.2237,-6.2144,-6.221,-6.2248,-6.2256,-6.2273,-6.2181,-6.2337,-6.2601,-6.2631,-6.2287,-6.2284,-6.2281,0,-6.1076,-6.1276,-6.1439,-6.1493,-6.162,-6.1696,-6.1753,-6.1848,-6.1924,-6.203,-6.2081,-6.2202,-6.2269,-6.2363,-6.2403,-6.234,-6.26,-6.2522,-6.2628,-6.2627,-6.2684,-6.268,-6.2964,-6.2724,-6.2724,-6.2723,-6.2722,0,-6.1297,-6.1437,-6.1505,-6.1605,-6.1763,-6.1797,-6.1953,-6.2006,-6.2091,-6.2202,-6.2203,-6.2308,-6.2353,-6.2465,-6.2497,-6.2658,-6.2688,-6.2714,-6.2721,-6.2715,-6.2712,-6.276,-6.2748,-6.2731,-6.2729,-6.2728,-6.2726,0,-6.1482,-6.1532,-6.171,-6.1817,-6.1847,-6.1958,-6.205,-6.2148,-6.2192,-6.2334,-6.2369,-6.2439,-6.2571,-6.262,-6.2781,-6.2802,-6.2989,-6.2984,-6.2956,-6.2958,-6.3061,-6.3051,-6.3387,-6.3434,-6.3162,-6.3164,-6.3166,0,-6.162,-6.1729,-6.1847,-6.1922,-6.1981,-6.2101,-6.218,-6.2218,-6.2299,-6.2422,-6.2505,-6.2637,-6.2744,-6.2956,-6.3022,-6.3145,-6.3144,-6.3253,-6.3163,-6.3154,-6.3148,-6.3141,-6.3153,-6.327,-6.3273,-6.3275,-6.3277,0,-6.1861,-6.1881,-6.1994,-6.2116,-6.2209,-6.2307,-6.2402,-6.2463,-6.2516,-6.2608,-6.2743,-6.2826,-6.2991,-6.3122,-6.3249,-6.3308,-6.3303,-6.3305,-6.3336,-6.3332,-6.3312,-6.3326,-6.3003,-6.3297,-6.3295,-6.3294,-6.3293,-6.3292,-6.2029,-6.2125,-6.2224,-6.235,-6.2425,-6.2514,-6.2612,-6.2669,-6.2783,-6.292,-6.2936,-6.3082,-6.318,-6.335,-6.3414,-6.353,-6.35,-6.3545,-6.3557,-6.3568,-6.3576,-6.3292,-6.3553,-6.3552,-6.3552,-6.3551,-6.3551,0,-6.2271,-6.2334,-6.245,-6.2583,-6.2683,-6.2668,-6.2773,-6.2857,-6.2986,-6.3078,-6.3184,-6.334,-6.3468,-6.3544,-6.3672,-6.375,-6.3751,-6.3783,-6.3778,-6.3792,-6.3594,-6.3555,-6.378,-6.378,-6.378,-6.378,-6.378,-6.378,-6.2409,-6.2572,-6.2604,-6.2805,-6.2867,-6.3011,-6.3072,-6.3155,-6.3229,-6.3403,-6.3509,-6.3558,-6.3645,-6.3779,-6.3896,-6.3915,-6.3963,-6.3998,-6.4015,-6.3829,-6.3806,-6.3783,-6.3747,-6.4008,-6.4008,-6.4203,-6.4205,-6.4207]}]]